User: anonymous   Login
Location: Luz Observatory
(34.5000°N, 117.2833°W)
Time: 19:13:12
(UTC-07:00)
Language:

Cosmos 1452 Rocket - Orbit

View from above orbital plane
View from above orbital plane
View from above satellite
View from above satellite

Ground track
Ground track

The orbit data is extracted from the following two-line orbital elements,

1 13992U 83031B   15188.57605303  .00000120  00000-0  50468-4 0  9991
2 13992 074.0520 230.3559 0004752 014.2905 093.5765 14.35955002686807
Epoch (UTC): 07 July 2015 13:49:30
Eccentricity: 0.0004752
inclination: 74.0520°
perigee height: 768 km
apogee height: 775 km
right ascension of ascending node: 230.3559°
argument of perigee: 14.2905°
revolutions per day: 14.35955002
mean anomaly at epoch: 93.5765°
orbit number at epoch: 68680

The dashed part of the orbit path shows where the satellite is in the earth's shadow,  

DLR